Location: Amon Carter Post Office
(32.8281°N, 97.0484°W)
Time: 10:40:54
(UTC+00:00)

H-2A R/B - Visible Passes

Search period start: 30 June 2022 00:00
Search period end: 10 July 2022 00:00
Orbit: 576 x 653 km, 98.5° (Epoch: 29 June)

Date Brightness Start Highest point End Pass type
(mag) Time Alt. Az. Time Alt. Az. Time Alt. Az.
30 Jun 2.2 02:26:03 10° NNE 02:30:25 57° ESE 02:34:49 10° S visible
30 Jun 5.3 04:04:40 10° NW 04:05:48 11° WNW 04:06:57 10° W visible
01 Jul 2.1 02:41:27 10° NNE 02:45:54 88° E 02:50:23 10° SSW visible
02 Jul 2.7 02:56:59 10° N 03:01:22 61° WNW 03:05:47 10° SSW visible
03 Jul 3.5 03:12:39 10° N 03:16:48 40° WNW 03:20:59 10° SW visible
04 Jul 4.2 03:28:28 10° NNW 03:32:12 27° WNW 03:35:58 10° SW visible
05 Jul 2.9 02:07:55 10° NE 02:11:56 33° E 02:16:00 10° SSE visible
05 Jul 4.8 03:44:30 10° NNW 03:47:34 19° WNW 03:50:40 10° WSW visible
06 Jul 2.4 02:23:07 10° NNE 02:27:29 50° E 02:31:50 10° S visible
06 Jul 5.1 04:00:59 10° NW 04:02:55 13° WNW 04:04:51 10° W visible
07 Jul 2.1 02:38:29 10° NNE 02:42:58 77° ESE 02:47:28 10° S visible
08 Jul 2.5 02:53:58 10° N 02:58:26 70° WNW 03:02:55 10° SSW visible
09 Jul 3.3 03:09:35 10° N 03:13:53 45° WNW 03:18:10 10° SW visible
